Regional Weather Roundup
Issued by NWS

Home | Current Version | Previous Version | Graphics & Text | Print | Product List | Glossary On
Versions: 1 2 3 4 5 6 7 8 9 10 11 12 13 14 15 16 17 18 19 20 21 22 23 24 25 26 27 28 29 30 31 32 33 34 35 36 37 38 39 40 41 42 43 44 45 46 47 48 49 50
000
ASUS45 KPSR 181500
RWRAZ

PRELIMINARY ARIZONA REGIONAL HOURLY WEATHER ROUNDUP
NATIONAL WEATHER SERVICE PHOENIX AZ
800 AM MST FRI APR 18 2014

NOTE: FAIR INDICATES FEW OR NO CLOUDS BELOW 12,000 FEET WITH NO
SIGNIFICANT WEATHER AND/OR OBSTRUCTIONS TO VISIBILITY.

AZZ001>003-036-181600-
NORTHWEST ARIZONA

CITY           SKY/WX    TMP DP  RH WIND       PRES   REMARKS
KINGMAN        CLOUDY    64  20  18 E16       29.92R
$$

AZZ004>008-015-016-018-181600-
NORTH CENTRAL ARIZONA

CITY           SKY/WX    TMP DP  RH WIND       PRES   REMARKS
GRAND CANYON   PTSUNNY   57  22  25 S5        30.10R
WILLIAMS       CLOUDY    54  19  26 SE5       30.17R
PRESCOTT       CLOUDY    57  21  24 E7        30.04R
FLAGSTAFF      CLOUDY    49  21  33 SW5       30.13R
PAYSON         CLOUDY    59  23  25 SE3       30.09R
PAGE           PTSUNNY   61  26  26 CALM      29.98R
$$

AZZ009>014-017-181600-
NORTHEAST ARIZONA

CITY           SKY/WX    TMP DP  RH WIND       PRES   REMARKS
WINSLOW        NOT AVBL
SAINT JOHNS    PTSUNNY   59  18  20 N3        30.08R
WINDOW ROCK    MOSUNNY   50  20  30 CALM      30.16S
SHOW LOW       CLOUDY    55  16  21 CALM      30.14R
$$

AZZ023-181600-
GREATER PHOENIX AREA

CITY           SKY/WX    TMP DP  RH WIND       PRES   REMARKS
PHOENIX        PTSUNNY   73  35  25 E6        29.90R
GLENDALE       PTSUNNY   72  37  28 CALM      29.91R
DEER VALLEY    CLOUDY    70  32  24 CALM      29.91R
SCOTTSDALE     CLOUDY    69  39  33 S3        29.92R
MESA-GATEWAY   PTSUNNY   70  36  28 SE7       29.93R
CHANDLER       PTSUNNY   70  37  30 CALM      29.91R
$$

AZZ027-028-181600-
SOUTHWEST MARICOPA COUNTY AND PINAL COUNTY

CITY           SKY/WX    TMP DP  RH WIND       PRES   REMARKS
CASA GRANDE    PTSUNNY   70  34  26 CALM      29.93R
$$

AZZ503-504-507>509-181600-
SOUTHEAST ARIZONA

CITY           SKY/WX    TMP DP  RH WIND       PRES   REMARKS
TUCSON         CLOUDY    68  41  37 CALM      30.00R
DAVIS-MONTHAN  CLOUDY    69  40  34 E3        29.99R
NOGALES        CLOUDY    64  41  42 CALM      30.04R
SIERRA VISTA   CLOUDY    64  32  29 SW5       30.06R
SAFFORD        CLOUDY    66  24  20 SE9       30.01R
$$

AZZ020-021-025-026-031-181600-
SOUTHWEST ARIZONA

CITY           SKY/WX    TMP DP  RH WIND       PRES   REMARKS
YUMA           NOT AVBL
$$

CAZ031-033-041-043-047-048-061-181600-
SOUTHERN CALIFORNIA

CITY           SKY/WX    TMP DP  RH WIND       PRES   REMARKS
DOWNTOWN L.A.  CLOUDY    62  51  67 CALM      29.91R
L.A. AIRPORT   CLOUDY    63  52  67 S5        29.91R
SAN DIEGO      CLOUDY    63  54  72 S8        29.93R
BURBANK        CLOUDY    57  53  86 CALM      29.91R FOG
ONTARIO        CLOUDY    59  53  80 W9        29.91R HAZE
RIVERSIDE      PTSUNNY   60  53  77 W6        29.91R
PALM SPRINGS   CLOUDY    68  52  56 CALM      29.84R
EL CENTRO NAS  CLOUDY    66  55  67 SW6       29.82R
IMPERIAL       CLOUDY    68  57  68 W10       29.81R
BLYTHE         CLOUDY    69  44  40 CALM      29.83R
$$

NVZ020-UTZ003-181600-
SOUTHERN NEVADA-UTAH

CITY           SKY/WX    TMP DP  RH WIND       PRES   REMARKS
LAS VEGAS      NOT AVBL
SALT LAKE CITY CLOUDY    64  25  22 SW6       29.86R
$$

NMZ009-TXZ055-181600-
NEW MEXICO-WEST TEXAS

CITY           SKY/WX    TMP DP  RH WIND       PRES   REMARKS
ALBUQUERQUE    PTSUNNY   53  28  38 N3        30.19R
EL PASO        CLOUDY    59  42  53 E7        30.13S
$$


........................KEY........................
SKY/WX - SKY CONDITION/WEATHER
TMP    - TEMPERATURE IN FAHRENHEIT
DP     - DEW POINT IN FAHRENHEIT
RH     - RELATIVE HUMIDITY IN PERCENT
WIND   - DIRECTION AND SPEED IN MILES PER HOUR (MPH)
VRB    - VARIABLE WIND DIRECTION
PRES   - MEAN SEA LEVEL PRESSURE IN INCHES OF MERCURY
         F - FALLING PRESSURE   R - RISING PRESSURE
         S - STEADY PRESSURE
VSB    - VISIBILITY IN MILES
HX     - HEAT INDEX IN FAHRENHEIT
WCI    - WIND CHILL INDEX IN FAHRENHEIT
TC     - TEMPERATURE IN CELSIUS WHICH IS ALSO KNOWN AS
         TEMPERATURE IN CENTIGRADE
AFB    - AIR FORCE BASE
         LUKE AFB IS LUKE AIR FORCE BASE
         DAVIS-MONTHAN IS DAVIS-MONTHAN AIR FORCE BASE
NAS    - NAVAL AIR STATION
         EL CENTRO NAS IS EL CENTRO NAVAL AIR STATION
N/A    - NOT AVAILABLE



USA.gov is the U.S. government's official web portal to all federal, state and local government web resources and services.